Time,TemperatureF,DewpointF,PressureIn,WindDirection,WindDirectionDegrees,WindSpeedMPH,WindSpeedGustMPH,Humidity,HourlyPrecipIn,Conditions,Clouds,dailyrainin,SoftwareType,DateUTC
2013-03-11 00:00:00,51.4,6.8,30.17,North,4,2.7,2.7,16,0.00,,,0.00,VWS V14.00,2013-03-11 04:00:00,
2013-03-11 00:05:00,51.4,6.8,30.17,North,357,3.6,3.6,16,0.00,,,0.00,VWS V14.00,2013-03-11 04:05:00,
2013-03-11 00:10:00,51.3,6.6,30.17,North,3,3.1,3.1,16,0.00,,,0.00,VWS V14.00,2013-03-11 04:10:00,
2013-03-11 00:15:00,51.3,6.6,30.17,North,357,3.1,3.1,16,0.00,,,0.00,VWS V14.00,2013-03-11 04:15:00,
2013-03-11 00:20:00,51.1,6.5,30.17,North,6,0.0,0.0,16,0.00,,,0.00,VWS V14.00,2013-03-11 04:20:00,
2013-03-11 00:25:00,51.1,6.5,30.17,North,357,3.6,3.6,16,0.00,,,0.00,VWS V14.00,2013-03-11 04:25:00,
2013-03-11 00:30:00,50.9,6.3,30.17,North,3,2.7,3.1,16,0.00,,,0.00,VWS V14.00,2013-03-11 04:30:00,
2013-03-11 00:35:00,50.7,6.2,30.17,North,0,2.7,2.7,16,0.00,,,0.00,VWS V14.00,2013-03-11 04:35:00,
2013-03-11 00:40:00,50.5,6.0,30.17,North,5,2.7,3.1,16,0.00,,,0.00,VWS V14.00,2013-03-11 04:40:00,
2013-03-11 00:45:00,50.5,6.0,30.17,North,0,3.1,3.6,16,0.00,,,0.00,VWS V14.00,2013-03-11 04:45:00,
2013-03-11 00:50:00,50.4,5.9,30.17,North,5,2.7,2.7,16,0.00,,,0.00,VWS V14.00,2013-03-11 04:50:00,
2013-03-11 00:55:00,50.2,5.7,30.17,North,357,2.7,2.7,16,0.00,,,0.00,VWS V14.00,2013-03-11 04:55:00,
2013-03-11 01:00:00,50.2,5.7,30.17,North,5,3.1,3.1,16,0.00,,,0.00,VWS V14.00,2013-03-11 05:00:00,
2013-03-11 01:05:00,50.2,5.7,30.17,North,7,2.7,4.0,16,0.00,,,0.00,VWS V14.00,2013-03-11 05:05:00,
2013-03-11 01:10:00,50.2,5.7,30.17,North,0,3.1,4.0,16,0.00,,,0.00,VWS V14.00,2013-03-11 05:10:00,
2013-03-11 01:15:00,50.2,5.7,30.17,North,357,3.1,4.0,16,0.00,,,0.00,VWS V14.00,2013-03-11 05:15:00,
2013-03-11 01:20:00,50.2,5.7,30.17,North,357,3.1,3.6,16,0.00,,,0.00,VWS V14.00,2013-03-11 05:20:00,
2013-03-11 01:25:00,50.0,5.6,30.17,North,0,3.1,4.0,16,0.00,,,0.00,VWS V14.00,2013-03-11 05:25:00,
2013-03-11 01:30:00,49.8,5.4,30.17,North,357,4.0,4.0,16,0.00,,,0.00,VWS V14.00,2013-03-11 05:30:00,
2013-03-11 01:35:00,49.6,5.3,30.14,North,357,2.7,3.1,16,0.00,,,0.00,VWS V14.00,2013-03-11 05:35:00,
2013-03-11 01:40:00,49.6,5.3,30.14,North,357,2.7,3.1,16,0.00,,,0.00,VWS V14.00,2013-03-11 05:40:00,
2013-03-11 01:45:00,49.5,5.2,30.14,North,357,3.1,3.1,16,0.00,,,0.00,VWS V14.00,2013-03-11 05:45:00,
2013-03-11 01:50:00,49.3,5.0,30.14,North,6,3.6,4.0,16,0.00,,,0.00,VWS V14.00,2013-03-11 05:50:00,
2013-03-11 01:55:00,49.3,5.0,30.14,North,357,4.0,4.0,16,0.00,,,0.00,VWS V14.00,2013-03-11 05:55:00,
2013-03-11 02:00:00,49.1,4.9,30.14,North,357,3.6,3.6,16,0.00,,,0.00,VWS V14.00,2013-03-11 06:00:00,
2013-03-11 02:05:00,49.1,4.9,30.14,North,357,3.1,3.6,16,0.00,,,0.00,VWS V14.00,2013-03-11 06:05:00,
2013-03-11 02:10:00,49.1,4.9,30.14,North,8,3.1,3.1,16,0.00,,,0.00,VWS V14.00,2013-03-11 06:10:00,
2013-03-11 02:15:00,48.9,4.7,30.14,North,3,2.7,2.7,16,0.00,,,0.00,VWS V14.00,2013-03-11 06:15:00,
2013-03-11 02:20:00,48.7,4.6,30.14,North,3,2.7,3.1,16,0.00,,,0.00,VWS V14.00,2013-03-11 06:20:00,
2013-03-11 02:25:00,48.6,4.4,30.14,North,357,2.7,4.0,16,0.00,,,0.00,VWS V14.00,2013-03-11 06:25:00,
2013-03-11 02:30:00,48.6,4.4,30.14,North,0,2.7,4.0,16,0.00,,,0.00,VWS V14.00,2013-03-11 06:30:00,
2013-03-11 02:36:00,48.6,4.4,30.14,North,0,2.7,2.7,16,0.00,,,0.00,VWS V14.00,2013-03-11 06:36:00,
2013-03-11 02:41:00,48.6,4.4,30.14,North,4,2.7,3.6,16,0.00,,,0.00,VWS V14.00,2013-03-11 06:41:00,
2013-03-11 02:46:00,48.6,4.4,30.14,North,357,2.7,3.1,16,0.00,,,0.00,VWS V14.00,2013-03-11 06:46:00,
2013-03-11 02:51:00,48.4,4.3,30.14,North,357,2.7,3.1,16,0.00,,,0.00,VWS V14.00,2013-03-11 06:51:00,
2013-03-11 02:56:00,48.2,4.1,30.14,North,7,2.7,3.1,16,0.00,,,0.00,VWS V14.00,2013-03-11 06:56:00,
2013-03-11 03:01:00,48.0,5.3,30.14,North,5,3.6,3.6,17,0.00,,,0.00,VWS V14.00,2013-03-11 07:01:00,
2013-03-11 03:07:00,47.8,5.2,30.14,North,357,3.6,3.6,17,0.00,,,0.00,VWS V14.00,2013-03-11 07:07:00,
2013-03-11 03:12:00,47.8,5.2,30.14,North,357,2.7,3.6,17,0.00,,,0.00,VWS V14.00,2013-03-11 07:12:00,
2013-03-11 03:17:00,47.7,5.0,30.14,North,5,3.1,3.6,17,0.00,,,0.00,VWS V14.00,2013-03-11 07:17:00,
2013-03-11 03:22:00,47.7,5.0,30.14,North,357,3.6,4.0,17,0.00,,,0.00,VWS V14.00,2013-03-11 07:22:00,
2013-03-11 03:27:00,47.5,4.8,30.14,North,5,4.0,4.0,17,0.00,,,0.00,VWS V14.00,2013-03-11 07:27:00,
2013-03-11 03:32:00,47.5,4.8,30.14,North,0,3.1,3.1,17,0.00,,,0.00,VWS V14.00,2013-03-11 07:32:00,
2013-03-11 03:37:00,47.3,4.7,30.14,North,8,3.1,3.6,17,0.00,,,0.00,VWS V14.00,2013-03-11 07:37:00,
2013-03-11 03:42:00,47.3,4.7,30.14,NE,38,0.0,0.0,17,0.00,,,0.00,VWS V14.00,2013-03-11 07:42:00,
2013-03-11 03:47:00,47.3,4.7,30.14,NNE,27,0.0,0.0,17,0.00,,,0.00,VWS V14.00,2013-03-11 07:47:00,
2013-03-11 03:52:00,47.1,4.6,30.14,North,5,0.0,0.0,17,0.00,,,0.00,VWS V14.00,2013-03-11 07:52:00,
2013-03-11 03:57:00,46.9,4.4,30.14,North,3,0.0,0.0,17,0.00,,,0.00,VWS V14.00,2013-03-11 07:57:00,
2013-03-11 04:02:00,46.8,4.3,30.14,North,3,0.0,0.0,17,0.00,,,0.00,VWS V14.00,2013-03-11 08:02:00,
2013-03-11 04:07:00,46.8,4.3,30.14,North,3,2.7,3.1,17,0.00,,,0.00,VWS V14.00,2013-03-11 08:07:00,
2013-03-11 04:12:00,46.6,4.1,30.14,North,5,2.7,3.1,17,0.00,,,0.00,VWS V14.00,2013-03-11 08:12:00,
2013-03-11 04:17:00,46.6,4.1,30.14,NNE,12,2.7,2.7,17,0.00,,,0.00,VWS V14.00,2013-03-11 08:17:00,
2013-03-11 04:22:00,46.4,4.0,30.14,North,11,3.6,3.6,17,0.00,,,0.00,VWS V14.00,2013-03-11 08:22:00,
2013-03-11 04:27:00,46.4,4.0,30.14,North,8,3.1,3.6,17,0.00,,,0.00,VWS V14.00,2013-03-11 08:27:00,
2013-03-11 04:32:00,46.2,3.8,30.14,North,4,2.7,3.1,17,0.00,,,0.00,VWS V14.00,2013-03-11 08:32:00,
2013-03-11 04:37:00,46.2,3.8,30.11,North,11,3.6,3.6,17,0.00,,,0.00,VWS V14.00,2013-03-11 08:37:00,
2013-03-11 04:42:00,46.2,3.8,30.11,North,7,2.7,3.6,17,0.00,,,0.00,VWS V14.00,2013-03-11 08:42:00,
2013-03-11 04:47:00,46.0,3.7,30.11,North,7,2.7,3.1,17,0.00,,,0.00,VWS V14.00,2013-03-11 08:47:00,
2013-03-11 04:52:00,45.7,3.4,30.11,North,7,2.2,3.1,17,0.00,,,0.00,VWS V14.00,2013-03-11 08:52:00,
2013-03-11 04:57:00,45.5,6.8,30.11,North,7,0.0,0.0,20,0.00,,,0.00,VWS V14.00,2013-03-11 08:57:00,
2013-03-11 05:02:00,45.1,6.5,30.11,North,7,0.0,0.0,20,0.00,,,0.00,VWS V14.00,2013-03-11 09:02:00,
2013-03-11 05:08:00,45.0,6.3,30.11,North,7,0.0,0.0,20,0.00,,,0.00,VWS V14.00,2013-03-11 09:08:00,
2013-03-11 05:13:00,44.8,6.2,30.11,North,7,0.0,0.0,20,0.00,,,0.00,VWS V14.00,2013-03-11 09:13:00,
2013-03-11 05:18:00,44.6,6.0,30.11,North,7,0.0,0.0,20,0.00,,,0.00,VWS V14.00,2013-03-11 09:18:00,
2013-03-11 05:23:00,44.4,5.9,30.11,North,7,0.0,0.0,20,0.00,,,0.00,VWS V14.00,2013-03-11 09:23:00,
2013-03-11 05:28:00,44.4,5.9,30.11,North,7,0.0,0.0,20,0.00,,,0.00,VWS V14.00,2013-03-11 09:28:00,
2013-03-11 05:33:00,44.4,5.9,30.11,North,357,0.0,0.0,20,0.00,,,0.00,VWS V14.00,2013-03-11 09:33:00,
2013-03-11 05:38:00,44.6,6.0,30.11,North,357,0.0,0.0,20,0.00,,,0.00,VWS V14.00,2013-03-11 09:38:00,
2013-03-11 05:43:00,44.6,6.0,30.11,North,357,0.0,0.0,20,0.00,,,0.00,VWS V14.00,2013-03-11 09:43:00,
2013-03-11 05:48:00,44.8,6.2,30.11,North,0,0.0,0.0,20,0.00,,,0.00,VWS V14.00,2013-03-11 09:48:00,
2013-03-11 05:53:00,44.6,6.0,30.11,North,0,0.0,0.0,20,0.00,,,0.00,VWS V14.00,2013-03-11 09:53:00,
2013-03-11 05:58:00,44.4,5.9,30.11,North,0,0.0,0.0,20,0.00,,,0.00,VWS V14.00,2013-03-11 09:58:00,
2013-03-11 06:03:00,44.1,8.6,30.11,North,0,0.0,0.0,23,0.00,,,0.00,VWS V14.00,2013-03-11 10:03:00,
2013-03-11 06:08:00,43.9,8.5,30.11,North,0,0.0,0.0,23,0.00,,,0.00,VWS V14.00,2013-03-11 10:08:00,
2013-03-11 06:13:00,43.5,8.2,30.11,North,0,0.0,0.0,23,0.00,,,0.00,VWS V14.00,2013-03-11 10:13:00,
2013-03-11 06:19:00,43.5,8.2,30.11,North,0,0.0,0.0,23,0.00,,,0.00,VWS V14.00,2013-03-11 10:19:00,
2013-03-11 06:24:00,43.5,8.2,30.11,North,0,0.0,0.0,23,0.00,,,0.00,VWS V14.00,2013-03-11 10:24:00,
2013-03-11 06:29:00,43.3,9.9,30.11,North,0,0.0,0.0,25,0.00,,,0.00,VWS V14.00,2013-03-11 10:29:00,
2013-03-11 06:34:00,43.2,9.7,30.11,North,2,0.0,0.0,25,0.00,,,0.00,VWS V14.00,2013-03-11 10:34:00,
2013-03-11 06:39:00,43.2,12.3,30.11,North,2,0.0,0.0,28,0.00,,,0.00,VWS V14.00,2013-03-11 10:39:00,
2013-03-11 06:44:00,43.0,12.1,30.11,North,4,0.0,0.0,28,0.00,,,0.00,VWS V14.00,2013-03-11 10:44:00,
2013-03-11 06:49:00,43.0,12.1,30.11,North,4,0.0,0.0,28,0.00,,,0.00,VWS V14.00,2013-03-11 10:49:00,
2013-03-11 06:54:00,42.8,12.0,30.11,North,5,0.0,0.0,28,0.00,,,0.00,VWS V14.00,2013-03-11 10:54:00,
2013-03-11 06:59:00,42.8,12.0,30.11,North,4,0.0,0.0,28,0.00,,,0.00,VWS V14.00,2013-03-11 10:59:00,
2013-03-11 07:04:00,42.8,12.0,30.11,North,4,0.0,0.0,28,0.00,,,0.00,VWS V14.00,2013-03-11 11:04:00,
2013-03-11 07:09:00,43.0,12.1,30.11,North,0,0.0,0.0,28,0.00,,,0.00,VWS V14.00,2013-03-11 11:09:00,
2013-03-11 07:14:00,43.2,12.3,30.11,North,0,0.0,0.0,28,0.00,,,0.00,VWS V14.00,2013-03-11 11:14:00,
2013-03-11 07:19:00,43.3,12.4,30.11,North,0,0.0,0.0,28,0.00,,,0.00,VWS V14.00,2013-03-11 11:19:00,
2013-03-11 07:24:00,43.3,9.9,30.11,North,353,0.0,0.0,25,0.00,,,0.00,VWS V14.00,2013-03-11 11:24:00,
2013-03-11 07:29:00,43.3,9.9,30.11,North,357,0.0,0.0,25,0.00,,,0.00,VWS V14.00,2013-03-11 11:29:00,
2013-03-11 07:34:00,43.3,12.4,30.11,North,2,0.0,2.7,28,0.00,,,0.00,VWS V14.00,2013-03-11 11:34:00,
2013-03-11 07:39:00,43.0,12.1,30.11,North,2,0.0,0.0,28,0.00,,,0.00,VWS V14.00,2013-03-11 11:39:00,
2013-03-11 07:44:00,42.8,12.0,30.11,North,6,0.0,0.0,28,0.00,,,0.00,VWS V14.00,2013-03-11 11:44:00,
2013-03-11 07:49:00,42.8,12.0,30.11,North,6,0.0,0.0,28,0.00,,,0.00,VWS V14.00,2013-03-11 11:49:00,
2013-03-11 07:54:00,42.6,12.6,30.11,North,6,0.0,0.0,29,0.00,,,0.00,VWS V14.00,2013-03-11 11:54:00,
2013-03-11 07:59:00,42.4,12.4,30.11,North,6,0.0,0.0,29,0.00,,,0.00,VWS V14.00,2013-03-11 11:59:00,
2013-03-11 08:04:00,42.3,12.3,30.11,North,6,0.0,0.0,29,0.00,,,0.00,VWS V14.00,2013-03-11 12:04:00,
2013-03-11 08:09:00,42.3,12.3,30.11,North,6,0.0,0.0,29,0.00,,,0.00,VWS V14.00,2013-03-11 12:09:00,
2013-03-11 08:14:00,42.3,12.3,30.11,North,6,0.0,0.0,29,0.00,,,0.00,VWS V14.00,2013-03-11 12:14:00,
2013-03-11 08:19:00,42.1,12.1,30.11,North,6,0.0,0.0,29,0.00,,,0.00,VWS V14.00,2013-03-11 12:19:00,
2013-03-11 08:24:00,42.3,12.3,30.11,North,6,0.0,0.0,29,0.00,,,0.00,VWS V14.00,2013-03-11 12:24:00,
2013-03-11 08:29:00,42.3,13.8,30.11,North,6,0.0,0.0,31,0.00,,,0.00,VWS V14.00,2013-03-11 12:29:00,
2013-03-11 08:34:00,42.1,14.4,30.11,North,6,0.0,0.0,32,0.00,,,0.00,VWS V14.00,2013-03-11 12:34:00,
2013-03-11 08:39:00,42.1,15.1,30.11,North,6,0.0,0.0,33,0.00,,,0.00,VWS V14.00,2013-03-11 12:39:00,
2013-03-11 08:44:00,41.9,14.9,30.11,North,6,0.0,0.0,33,0.00,,,0.00,VWS V14.00,2013-03-11 12:44:00,
2013-03-11 08:49:00,42.1,15.1,30.11,North,6,0.0,0.0,33,0.00,,,0.00,VWS V14.00,2013-03-11 12:49:00,
2013-03-11 08:54:00,42.3,14.5,30.11,North,6,0.0,0.0,32,0.00,,,0.00,VWS V14.00,2013-03-11 12:54:00,
2013-03-11 08:59:00,42.4,14.7,30.11,North,6,0.0,0.0,32,0.00,,,0.00,VWS V14.00,2013-03-11 12:59:00,
2013-03-11 09:04:00,42.8,14.3,30.11,North,6,0.0,0.0,31,0.00,,,0.00,VWS V14.00,2013-03-11 13:04:00,
2013-03-11 09:09:00,43.3,14.8,30.11,North,4,2.7,2.7,31,0.00,,,0.00,VWS V14.00,2013-03-11 13:09:00,
2013-03-11 09:14:00,43.7,15.1,30.11,North,5,0.0,3.1,31,0.00,,,0.00,VWS V14.00,2013-03-11 13:14:00,
2013-03-11 09:19:00,44.6,16.6,30.11,North,4,2.7,2.7,32,0.00,,,0.00,VWS V14.00,2013-03-11 13:19:00,
2013-03-11 09:24:00,45.1,17.8,30.11,North,2,2.2,3.1,33,0.00,,,0.00,VWS V14.00,2013-03-11 13:24:00,
2013-03-11 09:29:00,45.7,18.2,30.11,North,2,0.0,0.0,33,0.00,,,0.00,VWS V14.00,2013-03-11 13:29:00,
2013-03-11 09:35:00,46.0,19.9,30.11,NNE,20,0.0,0.0,35,0.00,,,0.00,VWS V14.00,2013-03-11 13:35:00,
2013-03-11 09:40:00,46.2,19.4,30.11,North,2,0.0,0.0,34,0.00,,,0.00,VWS V14.00,2013-03-11 13:40:00,
2013-03-11 09:45:00,46.6,19.0,30.11,NNE,14,3.1,3.1,33,0.00,,,0.00,VWS V14.00,2013-03-11 13:45:00,
2013-03-11 09:50:00,46.8,18.5,30.11,NNE,17,0.0,0.0,32,0.00,,,0.00,VWS V14.00,2013-03-11 13:50:00,
2013-03-11 09:55:00,46.9,18.6,30.11,North,11,0.0,0.0,32,0.00,,,0.00,VWS V14.00,2013-03-11 13:55:00,
2013-03-11 10:00:00,47.3,19.0,30.11,North,11,0.0,0.0,32,0.00,,,0.00,VWS V14.00,2013-03-11 14:00:00,
2013-03-11 10:05:00,47.7,19.3,30.11,NE,44,0.0,0.0,32,0.00,,,0.00,VWS V14.00,2013-03-11 14:05:00,
2013-03-11 10:10:00,48.0,19.6,30.11,NNW,344,0.0,0.0,32,0.00,,,0.00,VWS V14.00,2013-03-11 14:10:00,
2013-03-11 10:15:00,48.4,19.9,30.11,North,2,0.0,0.0,32,0.00,,,0.00,VWS V14.00,2013-03-11 14:15:00,
2013-03-11 10:20:00,48.7,20.9,30.11,North,1,0.0,0.0,33,0.00,,,0.00,VWS V14.00,2013-03-11 14:20:00,
2013-03-11 10:25:00,49.1,21.3,30.11,NE,51,0.0,0.0,33,0.00,,,0.00,VWS V14.00,2013-03-11 14:25:00,
2013-03-11 10:30:00,49.6,21.7,30.11,North,0,0.0,0.0,33,0.00,,,0.00,VWS V14.00,2013-03-11 14:30:00,
2013-03-11 10:35:00,50.0,22.0,30.11,North,4,0.0,0.0,33,0.00,,,0.00,VWS V14.00,2013-03-11 14:35:00,
2013-03-11 10:40:00,50.4,22.4,30.11,NNE,31,0.0,0.0,33,0.00,,,0.00,VWS V14.00,2013-03-11 14:40:00,
2013-03-11 10:45:00,50.7,22.7,30.11,NNE,33,0.0,0.0,33,0.00,,,0.00,VWS V14.00,2013-03-11 14:45:00,
2013-03-11 10:50:00,50.9,22.8,30.11,NE,34,0.0,0.0,33,0.00,,,0.00,VWS V14.00,2013-03-11 14:50:00,
2013-03-11 10:55:00,50.9,22.8,30.11,North,357,0.0,0.0,33,0.00,,,0.00,VWS V14.00,2013-03-11 14:55:00,
2013-03-11 11:00:00,51.3,23.2,30.11,North,353,0.0,0.0,33,0.00,,,0.00,VWS V14.00,2013-03-11 15:00:00,
2013-03-11 11:05:00,51.4,24.0,30.11,North,353,0.0,0.0,34,0.00,,,0.00,VWS V14.00,2013-03-11 15:05:00,
2013-03-11 11:10:00,51.4,24.7,30.11,SSE,165,0.0,0.0,35,0.00,,,0.00,VWS V14.00,2013-03-11 15:10:00,
2013-03-11 11:15:00,51.6,24.9,30.11,NNE,13,2.7,2.7,35,0.00,,,0.00,VWS V14.00,2013-03-11 15:15:00,
2013-03-11 11:20:00,51.8,25.7,30.11,North,7,2.2,3.6,36,0.00,,,0.00,VWS V14.00,2013-03-11 15:20:00,
2013-03-11 11:25:00,52.3,26.2,30.11,NNE,14,0.0,3.1,36,0.00,,,0.00,VWS V14.00,2013-03-11 15:25:00,
2013-03-11 11:30:00,52.9,26.7,30.11,NNE,13,0.0,0.0,36,0.00,,,0.00,VWS V14.00,2013-03-11 15:30:00,
2013-03-11 11:35:00,53.4,27.1,30.08,NE,35,0.0,2.2,36,0.00,,,0.00,VWS V14.00,2013-03-11 15:35:00,
2013-03-11 11:40:00,54.0,27.6,30.08,North,9,0.0,0.0,36,0.00,,,0.00,VWS V14.00,2013-03-11 15:40:00,
2013-03-11 11:45:00,54.1,27.8,30.08,North,5,0.0,0.0,36,0.00,,,0.00,VWS V14.00,2013-03-11 15:45:00,
2013-03-11 11:50:00,54.5,28.1,30.08,North,0,0.0,2.7,36,0.00,,,0.00,VWS V14.00,2013-03-11 15:50:00,
2013-03-11 11:56:00,55.0,28.6,30.08,NNE,12,0.0,2.7,36,0.00,,,0.00,VWS V14.00,2013-03-11 15:56:00,
2013-03-11 12:01:00,55.6,29.1,30.08,ENE,72,0.0,3.6,36,0.00,,,0.00,VWS V14.00,2013-03-11 16:01:00,
2013-03-11 12:06:00,55.9,29.4,30.08,North,357,0.0,0.0,36,0.00,,,0.00,VWS V14.00,2013-03-11 16:06:00,
2013-03-11 12:11:00,56.5,29.9,30.08,North,2,2.2,4.9,36,0.00,,,0.00,VWS V14.00,2013-03-11 16:11:00,
2013-03-11 12:16:00,56.7,30.0,30.08,North,7,2.7,4.0,36,0.00,,,0.00,VWS V14.00,2013-03-11 16:16:00,
2013-03-11 12:21:00,56.8,30.2,30.05,North,357,0.0,0.0,36,0.00,,,0.00,VWS V14.00,2013-03-11 16:21:00,
2013-03-11 12:26:00,57.2,30.5,30.05,North,357,4.0,4.0,36,0.00,,,0.00,VWS V14.00,2013-03-11 16:26:00,
2013-03-11 12:31:00,57.6,31.5,30.05,North,8,0.0,0.0,37,0.00,,,0.00,VWS V14.00,2013-03-11 16:31:00,
2013-03-11 12:36:00,57.9,31.8,30.05,North,353,2.7,2.7,37,0.00,,,0.00,VWS V14.00,2013-03-11 16:36:00,
2013-03-11 12:41:00,58.3,32.2,30.05,NE,44,0.0,3.1,37,0.00,,,0.00,VWS V14.00,2013-03-11 16:41:00,
2013-03-11 12:46:00,58.5,32.3,30.05,North,2,0.0,0.0,37,0.00,,,0.00,VWS V14.00,2013-03-11 16:46:00,
2013-03-11 12:51:00,59.0,32.8,30.05,NE,42,0.0,0.0,37,0.00,,,0.00,VWS V14.00,2013-03-11 16:51:00,
2013-03-11 12:56:00,59.4,33.1,30.05,North,353,3.1,4.0,37,0.00,,,0.00,VWS V14.00,2013-03-11 16:56:00,
2013-03-11 13:01:00,59.7,33.4,30.05,North,9,3.1,3.1,37,0.00,,,0.00,VWS V14.00,2013-03-11 17:01:00,
2013-03-11 13:06:00,60.1,33.1,30.02,North,1,3.6,3.6,36,0.00,,,0.00,VWS V14.00,2013-03-11 17:06:00,
2013-03-11 13:11:00,60.3,33.2,30.02,North,2,3.6,5.4,36,0.00,,,0.00,VWS V14.00,2013-03-11 17:11:00,
2013-03-11 13:16:00,60.4,33.4,30.02,NNW,345,3.6,5.4,36,0.00,,,0.00,VWS V14.00,2013-03-11 17:16:00,
2013-03-11 13:21:00,60.6,33.5,30.02,North,357,3.6,3.6,36,0.00,,,0.00,VWS V14.00,2013-03-11 17:21:00,
2013-03-11 13:27:00,60.8,33.0,30.02,NNE,17,0.0,3.1,35,0.00,,,0.00,VWS V14.00,2013-03-11 17:27:00,
2013-03-11 13:32:00,60.8,33.0,30.02,North,353,4.0,4.0,35,0.00,,,0.00,VWS V14.00,2013-03-11 17:32:00,
2013-03-11 13:37:00,61.0,33.2,30.02,NNE,21,3.6,3.6,35,0.00,,,0.00,VWS V14.00,2013-03-11 17:37:00,
2013-03-11 13:42:00,61.0,33.2,30.02,North,4,3.1,3.6,35,0.00,,,0.00,VWS V14.00,2013-03-11 17:42:00,
2013-03-11 13:47:00,61.0,33.2,30.02,North,4,4.0,4.0,35,0.00,,,0.00,VWS V14.00,2013-03-11 17:47:00,
2013-03-11 13:52:00,60.8,33.0,30.02,North,2,2.7,2.7,35,0.00,,,0.00,VWS V14.00,2013-03-11 17:52:00,
2013-03-11 13:57:00,60.6,33.5,30.02,North,357,2.7,3.1,36,0.00,,,0.00,VWS V14.00,2013-03-11 17:57:00,
2013-03-11 14:02:00,60.4,33.4,30.02,North,353,3.6,3.6,36,0.00,,,0.00,VWS V14.00,2013-03-11 18:02:00,
2013-03-11 14:07:00,60.3,33.2,29.99,North,357,4.0,4.0,36,0.00,,,0.00,VWS V14.00,2013-03-11 18:07:00,
2013-03-11 14:12:00,60.1,33.8,29.99,North,357,2.7,2.7,37,0.00,,,0.00,VWS V14.00,2013-03-11 18:12:00,
2013-03-11 14:17:00,60.1,33.8,29.99,NNE,21,4.5,4.9,37,0.00,,,0.00,VWS V14.00,2013-03-11 18:17:00,
2013-03-11 14:22:00,60.1,33.8,29.99,North,0,3.1,4.0,37,0.00,,,0.00,VWS V14.00,2013-03-11 18:22:00,
2013-03-11 14:27:00,60.4,34.1,29.99,North,1,5.8,5.8,37,0.00,,,0.00,VWS V14.00,2013-03-11 18:27:00,
2013-03-11 14:33:00,60.8,33.7,29.99,North,0,4.9,5.4,36,0.00,,,0.00,VWS V14.00,2013-03-11 18:33:00,
2013-03-11 14:38:00,61.0,33.9,29.99,North,357,4.9,5.8,36,0.00,,,0.00,VWS V14.00,2013-03-11 18:38:00,
2013-03-11 14:43:00,61.9,34.7,29.99,North,0,4.0,4.0,36,0.00,,,0.00,VWS V14.00,2013-03-11 18:43:00,
2013-03-11 14:48:00,62.8,34.8,29.99,NNE,16,5.4,5.4,35,0.00,,,0.00,VWS V14.00,2013-03-11 18:48:00,
2013-03-11 14:53:00,63.1,34.3,29.96,North,1,3.6,3.6,34,0.00,,,0.00,VWS V14.00,2013-03-11 18:53:00,
2013-03-11 14:58:00,63.9,35.0,29.96,North,6,2.2,3.6,34,0.00,,,0.00,VWS V14.00,2013-03-11 18:58:00,
2013-03-11 15:03:00,64.4,34.7,29.96,North,0,3.6,6.3,33,0.00,,,0.00,VWS V14.00,2013-03-11 19:03:00,
2013-03-11 15:08:00,64.8,34.2,29.96,North,6,3.1,3.6,32,0.00,,,0.00,VWS V14.00,2013-03-11 19:08:00,
2013-03-11 15:13:00,64.8,33.5,29.96,North,9,3.1,3.6,31,0.00,,,0.00,VWS V14.00,2013-03-11 19:13:00,
2013-03-11 15:18:00,64.2,33.0,29.96,North,357,3.1,4.0,31,0.00,,,0.00,VWS V14.00,2013-03-11 19:18:00,
2013-03-11 15:23:00,63.5,32.3,29.96,North,7,4.9,5.8,31,0.00,,,0.00,VWS V14.00,2013-03-11 19:23:00,
2013-03-11 15:29:00,63.0,32.7,29.96,North,6,5.8,5.8,32,0.00,,,0.00,VWS V14.00,2013-03-11 19:29:00,
2013-03-11 15:34:00,63.0,33.4,29.93,North,0,4.0,4.0,33,0.00,,,0.00,VWS V14.00,2013-03-11 19:34:00,
2013-03-11 15:39:00,63.0,33.4,29.93,North,357,4.0,4.0,33,0.00,,,0.00,VWS V14.00,2013-03-11 19:39:00,
2013-03-11 15:44:00,63.3,33.8,29.93,North,357,4.9,4.9,33,0.00,,,0.00,VWS V14.00,2013-03-11 19:44:00,
2013-03-11 15:49:00,63.9,33.5,29.93,North,357,3.6,4.9,32,0.00,,,0.00,VWS V14.00,2013-03-11 19:49:00,
2013-03-11 15:54:00,64.0,33.6,29.93,NE,35,5.4,5.4,32,0.00,,,0.00,VWS V14.00,2013-03-11 19:54:00,
2013-03-11 15:59:00,64.2,33.0,29.93,North,5,3.1,4.0,31,0.00,,,0.00,VWS V14.00,2013-03-11 19:59:00,
2013-03-11 16:04:00,64.4,33.1,29.93,North,353,4.0,4.9,31,0.00,,,0.00,VWS V14.00,2013-03-11 20:04:00,
2013-03-11 16:09:00,64.2,33.0,29.93,North,9,2.7,4.5,31,0.00,,,0.00,VWS V14.00,2013-03-11 20:09:00,
2013-03-11 16:14:00,63.9,32.7,29.93,NNE,18,3.1,4.9,31,0.00,,,0.00,VWS V14.00,2013-03-11 20:14:00,
2013-03-11 16:19:00,63.1,32.8,29.93,North,11,0.0,0.0,32,0.00,,,0.00,VWS V14.00,2013-03-11 20:19:00,
2013-03-11 16:24:00,62.8,33.3,29.93,North,0,2.7,4.0,33,0.00,,,0.00,VWS V14.00,2013-03-11 20:24:00,
2013-03-11 16:29:00,62.4,33.7,29.93,NNW,342,4.9,4.9,34,0.00,,,0.00,VWS V14.00,2013-03-11 20:29:00,
2013-03-11 16:34:00,62.2,33.5,29.93,North,0,2.7,4.0,34,0.00,,,0.00,VWS V14.00,2013-03-11 20:34:00,
2013-03-11 16:39:00,62.2,33.5,29.93,North,3,0.0,0.0,34,0.00,,,0.00,VWS V14.00,2013-03-11 20:39:00,
2013-03-11 16:44:00,62.4,33.7,29.93,NNE,16,3.6,3.6,34,0.00,,,0.00,VWS V14.00,2013-03-11 20:44:00,
2013-03-11 16:49:00,62.6,33.9,29.90,North,357,3.1,3.1,34,0.00,,,0.00,VWS V14.00,2013-03-11 20:49:00,
2013-03-11 16:54:00,62.6,33.9,29.90,North,0,0.0,4.0,34,0.00,,,0.00,VWS V14.00,2013-03-11 20:54:00,
2013-03-11 16:59:00,62.8,33.3,29.90,NW,322,2.2,4.9,33,0.00,,,0.00,VWS V14.00,2013-03-11 20:59:00,
2013-03-11 17:04:00,63.0,33.4,29.90,North,0,4.0,4.0,33,0.00,,,0.00,VWS V14.00,2013-03-11 21:04:00,
2013-03-11 17:09:00,63.0,33.4,29.90,North,357,4.0,4.0,33,0.00,,,0.00,VWS V14.00,2013-03-11 21:09:00,
2013-03-11 17:14:00,63.0,33.4,29.90,North,2,0.0,0.0,33,0.00,,,0.00,VWS V14.00,2013-03-11 21:14:00,
2013-03-11 17:19:00,62.6,33.1,29.90,North,0,0.0,0.0,33,0.00,,,0.00,VWS V14.00,2013-03-11 21:19:00,
2013-03-11 17:24:00,62.4,33.7,29.90,NW,325,3.1,4.9,34,0.00,,,0.00,VWS V14.00,2013-03-11 21:24:00,
2013-03-11 17:29:00,62.2,33.5,29.90,North,353,3.1,3.1,34,0.00,,,0.00,VWS V14.00,2013-03-11 21:29:00,
2013-03-11 17:34:00,62.2,33.5,29.90,North,6,3.1,3.1,34,0.00,,,0.00,VWS V14.00,2013-03-11 21:34:00,
2013-03-11 17:39:00,62.2,33.5,29.90,North,10,0.0,3.6,34,0.00,,,0.00,VWS V14.00,2013-03-11 21:39:00,
2013-03-11 17:44:00,62.2,33.5,29.90,North,8,4.0,5.8,34,0.00,,,0.00,VWS V14.00,2013-03-11 21:44:00,
2013-03-11 17:49:00,62.1,33.4,29.90,North,353,4.9,4.9,34,0.00,,,0.00,VWS V14.00,2013-03-11 21:49:00,
2013-03-11 17:54:00,62.2,33.5,29.90,North,0,3.1,4.0,34,0.00,,,0.00,VWS V14.00,2013-03-11 21:54:00,
2013-03-11 17:59:00,62.2,33.5,29.90,North,0,4.9,4.9,34,0.00,,,0.00,VWS V14.00,2013-03-11 21:59:00,
2013-03-11 18:04:00,62.2,33.5,29.90,NNW,343,5.4,5.8,34,0.00,,,0.00,VWS V14.00,2013-03-11 22:04:00,
2013-03-11 18:09:00,62.2,33.5,29.90,North,0,4.9,6.3,34,0.00,,,0.00,VWS V14.00,2013-03-11 22:09:00,
2013-03-11 18:14:00,62.2,33.5,29.90,North,0,4.0,5.4,34,0.00,,,0.00,VWS V14.00,2013-03-11 22:14:00,
2013-03-11 18:19:00,62.1,33.4,29.87,North,1,3.6,4.0,34,0.00,,,0.00,VWS V14.00,2013-03-11 22:19:00,
2013-03-11 18:24:00,61.9,33.2,29.87,NNE,21,4.9,5.8,34,0.00,,,0.00,VWS V14.00,2013-03-11 22:24:00,
2013-03-11 18:29:00,61.9,33.2,29.87,South,173,3.6,5.4,34,0.00,,,0.00,VWS V14.00,2013-03-11 22:29:00,
2013-03-11 18:34:00,61.7,33.1,29.87,North,0,3.1,4.9,34,0.00,,,0.00,VWS V14.00,2013-03-11 22:34:00,
2013-03-11 18:39:00,61.7,33.1,29.87,North,0,4.0,4.9,34,0.00,,,0.00,VWS V14.00,2013-03-11 22:39:00,
2013-03-11 18:45:00,61.7,33.1,29.87,North,353,3.1,4.0,34,0.00,,,0.00,VWS V14.00,2013-03-11 22:45:00,
2013-03-11 18:50:00,61.5,32.9,29.87,NE,36,5.4,5.4,34,0.00,,,0.00,VWS V14.00,2013-03-11 22:50:00,
2013-03-11 18:55:00,61.3,32.8,29.87,NNW,341,0.0,0.0,34,0.00,,,0.00,VWS V14.00,2013-03-11 22:55:00,
2013-03-11 19:00:00,61.2,32.6,29.87,NNW,335,3.1,3.1,34,0.00,,,0.00,VWS V14.00,2013-03-11 23:00:00,
2013-03-11 19:05:00,61.0,32.4,29.87,North,0,3.6,3.6,34,0.00,,,0.00,VWS V14.00,2013-03-11 23:05:00,
2013-03-11 19:10:00,61.0,32.4,29.87,North,4,5.4,5.4,34,0.00,,,0.00,VWS V14.00,2013-03-11 23:10:00,
2013-03-11 19:15:00,61.0,33.2,29.87,North,0,3.1,4.0,35,0.00,,,0.00,VWS V14.00,2013-03-11 23:15:00,
2013-03-11 19:20:00,61.0,33.2,29.87,North,357,3.6,3.6,35,0.00,,,0.00,VWS V14.00,2013-03-11 23:20:00,
2013-03-11 19:25:00,60.8,33.0,29.87,North,3,2.7,4.0,35,0.00,,,0.00,VWS V14.00,2013-03-11 23:25:00,
2013-03-11 19:30:00,60.8,33.0,29.87,North,8,3.6,6.3,35,0.00,,,0.00,VWS V14.00,2013-03-11 23:30:00,
2013-03-11 19:35:00,60.8,33.0,29.90,North,353,3.1,4.0,35,0.00,,,0.00,VWS V14.00,2013-03-11 23:35:00,
2013-03-11 19:40:00,60.8,33.0,29.90,North,357,2.7,3.6,35,0.00,,,0.00,VWS V14.00,2013-03-11 23:40:00,
2013-03-11 19:45:00,60.6,32.8,29.90,North,0,2.7,3.6,35,0.00,,,0.00,VWS V14.00,2013-03-11 23:45:00,
2013-03-11 19:50:00,60.6,32.8,29.87,North,0,3.6,3.6,35,0.00,,,0.00,VWS V14.00,2013-03-11 23:50:00,
2013-03-11 19:55:00,60.6,32.8,29.87,North,353,2.7,4.0,35,0.00,,,0.00,VWS V14.00,2013-03-11 23:55:00,
2013-03-11 20:00:00,60.4,32.7,29.87,North,0,2.7,3.1,35,0.00,,,0.00,VWS V14.00,2013-03-12 00:00:00,
2013-03-11 20:05:00,60.4,32.7,29.90,North,357,3.1,3.1,35,0.00,,,0.00,VWS V14.00,2013-03-12 00:05:00,
2013-03-11 20:10:00,60.4,32.7,29.90,NE,36,3.1,3.1,35,0.00,,,0.00,VWS V14.00,2013-03-12 00:10:00,
2013-03-11 20:15:00,60.4,32.7,29.90,North,0,4.0,4.0,35,0.00,,,0.00,VWS V14.00,2013-03-12 00:15:00,
2013-03-11 20:20:00,60.3,32.5,29.90,North,349,0.0,3.1,35,0.00,,,0.00,VWS V14.00,2013-03-12 00:20:00,
2013-03-11 20:25:00,60.3,32.5,29.90,North,357,2.7,3.1,35,0.00,,,0.00,VWS V14.00,2013-03-12 00:25:00,
2013-03-11 20:30:00,60.1,32.4,29.90,NNW,342,3.6,4.0,35,0.00,,,0.00,VWS V14.00,2013-03-12 00:30:00,
2013-03-11 20:35:00,60.1,32.4,29.90,NNW,348,2.2,4.0,35,0.00,,,0.00,VWS V14.00,2013-03-12 00:35:00,
2013-03-11 20:40:00,60.1,32.4,29.90,NW,326,3.1,3.6,35,0.00,,,0.00,VWS V14.00,2013-03-12 00:40:00,
2013-03-11 20:45:00,60.1,33.1,29.90,North,1,2.7,3.1,36,0.00,,,0.00,VWS V14.00,2013-03-12 00:45:00,
2013-03-11 20:50:00,59.9,32.9,29.90,WNW,300,3.6,3.6,36,0.00,,,0.00,VWS V14.00,2013-03-12 00:50:00,
2013-03-11 20:55:00,59.9,32.9,29.90,NW,318,3.6,4.0,36,0.00,,,0.00,VWS V14.00,2013-03-12 00:55:00,
2013-03-11 21:00:00,59.9,32.9,29.90,North,0,2.7,4.0,36,0.00,,,0.00,VWS V14.00,2013-03-12 01:00:00,
2013-03-11 21:05:00,59.9,32.9,29.87,North,357,3.6,3.6,36,0.00,,,0.00,VWS V14.00,2013-03-12 01:05:00,
2013-03-11 21:10:00,59.7,32.7,29.87,NW,320,3.6,5.4,36,0.00,,,0.00,VWS V14.00,2013-03-12 01:10:00,
2013-03-11 21:15:00,59.7,32.7,29.87,North,0,0.0,0.0,36,0.00,,,0.00,VWS V14.00,2013-03-12 01:15:00,
2013-03-11 21:20:00,59.5,33.3,29.87,North,10,3.6,4.0,37,0.00,,,0.00,VWS V14.00,2013-03-12 01:20:00,
2013-03-11 21:25:00,59.5,33.3,29.87,North,357,5.4,5.8,37,0.00,,,0.00,VWS V14.00,2013-03-12 01:25:00,
2013-03-11 21:30:00,59.5,33.3,29.87,North,353,3.1,5.4,37,0.00,,,0.00,VWS V14.00,2013-03-12 01:30:00,
2013-03-11 21:35:00,59.5,33.9,29.87,North,0,3.6,4.0,38,0.00,,,0.00,VWS V14.00,2013-03-12 01:35:00,
2013-03-11 21:40:00,59.5,33.3,29.87,North,0,3.6,3.6,37,0.00,,,0.00,VWS V14.00,2013-03-12 01:40:00,
2013-03-11 21:46:00,59.5,33.3,29.87,North,4,4.0,4.0,37,0.00,,,0.00,VWS V14.00,2013-03-12 01:46:00,
2013-03-11 21:51:00,59.4,33.8,29.87,North,357,3.6,3.6,38,0.00,,,0.00,VWS V14.00,2013-03-12 01:51:00,
2013-03-11 21:56:00,59.4,33.8,29.87,NNE,12,3.6,4.5,38,0.00,,,0.00,VWS V14.00,2013-03-12 01:56:00,
2013-03-11 22:01:00,59.4,33.8,29.87,NNW,343,2.7,4.0,38,0.00,,,0.00,VWS V14.00,2013-03-12 02:01:00,
2013-03-11 22:06:00,59.4,33.8,29.87,North,353,4.0,4.0,38,0.00,,,0.00,VWS V14.00,2013-03-12 02:06:00,
2013-03-11 22:11:00,59.2,33.6,29.87,NNW,341,5.8,5.8,38,0.00,,,0.00,VWS V14.00,2013-03-12 02:11:00,
2013-03-11 22:16:00,59.2,34.3,29.87,NNW,344,5.4,5.4,39,0.00,,,0.00,VWS V14.00,2013-03-12 02:16:00,
2013-03-11 22:21:00,59.2,34.3,29.87,NNW,345,3.1,4.5,39,0.00,,,0.00,VWS V14.00,2013-03-12 02:21:00,
2013-03-11 22:26:00,59.2,34.9,29.87,NNW,334,6.3,6.3,40,0.00,,,0.00,VWS V14.00,2013-03-12 02:26:00,
2013-03-11 22:31:00,59.2,35.5,29.87,NNE,21,3.1,5.4,41,0.00,,,0.00,VWS V14.00,2013-03-12 02:31:00,
2013-03-11 22:36:00,59.2,35.5,29.87,North,4,3.1,4.0,41,0.00,,,0.00,VWS V14.00,2013-03-12 02:36:00,
2013-03-11 22:42:00,59.0,35.3,29.87,North,353,4.0,4.0,41,0.00,,,0.00,VWS V14.00,2013-03-12 02:42:00,
2013-03-11 22:47:00,58.8,36.4,29.87,North,0,3.6,3.6,43,0.00,,,0.00,VWS V14.00,2013-03-12 02:47:00,
2013-03-11 22:52:00,58.8,36.4,29.84,North,357,4.0,5.4,43,0.00,,,0.00,VWS V14.00,2013-03-12 02:52:00,
2013-03-11 22:57:00,58.8,36.4,29.84,NNE,12,4.0,5.8,43,0.00,,,0.00,VWS V14.00,2013-03-12 02:57:00,
2013-03-11 23:02:00,58.8,37.0,29.84,North,0,4.0,4.5,44,0.00,,,0.00,VWS V14.00,2013-03-12 03:02:00,
2013-03-11 23:07:00,58.8,37.0,29.87,North,7,4.0,5.4,44,0.00,,,0.00,VWS V14.00,2013-03-12 03:07:00,
2013-03-11 23:12:00,58.6,37.4,29.87,North,353,5.8,7.2,45,0.00,,,0.00,VWS V14.00,2013-03-12 03:12:00,
2013-03-11 23:17:00,58.5,37.8,29.87,North,0,6.3,6.3,46,0.00,,,0.00,VWS V14.00,2013-03-12 03:17:00,
2013-03-11 23:22:00,58.3,37.6,29.87,North,0,4.0,4.0,46,0.00,,,0.00,VWS V14.00,2013-03-12 03:22:00,
2013-03-11 23:27:00,57.9,37.8,29.87,North,3,3.1,4.0,47,0.00,,,0.00,VWS V14.00,2013-03-12 03:27:00,
2013-03-11 23:32:00,57.7,38.2,29.87,North,0,3.1,4.0,48,0.00,,,0.00,VWS V14.00,2013-03-12 03:32:00,
2013-03-11 23:37:00,57.6,38.6,29.87,North,353,4.0,4.0,49,0.00,,,0.00,VWS V14.00,2013-03-12 03:37:00,
2013-03-11 23:43:00,57.4,38.9,29.87,North,2,3.1,4.0,50,0.00,,,0.00,VWS V14.00,2013-03-12 03:43:00,
2013-03-11 23:48:00,57.2,39.2,29.87,North,357,3.6,5.4,51,0.00,,,0.00,VWS V14.00,2013-03-12 03:48:00,
2013-03-11 23:53:00,57.0,40.1,29.87,North,0,3.1,3.6,53,0.00,,,0.00,VWS V14.00,2013-03-12 03:53:00,
2013-03-11 23:58:00,56.8,39.9,29.87,North,353,4.5,4.5,53,0.00,,,0.00,VWS V14.00,2013-03-12 03:58:00,